Monticello, IA

7:30 AM CDT on July 28, 2017 (GMT -0500)
Monticello Regional

Weather History for KMXO - January, 2014

Change the Weather History Date:

Monday, January 20, 2014

  Actual Average Record
Temperature  
Mean Temperature 22 °F -  
Max Temperature 35 °F 26 °F 39 °F (1997)
Min Temperature 10 °F 11 °F -13 °F (2008)
Degree Days  
Heating Degree Days 42    
Moisture  
Dew Point 22 °F    
Average Humidity 84    
Maximum Humidity 100    
Minimum Humidity 65    
Precipitation  
Precipitation 0.03 in - - ()
Sea Level Pressure  
Sea Level Pressure 29.91 in    
Wind  
Wind Speed 12 mph (NW)    
Max Wind Speed 20 mph    
Max Gust Speed 28 mph    
Visibility 7 miles    
Events Rain , Snow    
Averages and records for this station are not official NWS values.
T = Trace of Precipitation, MM = Missing Value Source: NWS Daily Summary

Daily Weather History Graph

Daily Weather History Graph

Search for Another Location

Airport or City:

Trip Planner

Search our weather history database for the weather conditions in past years. The results will help you decide how hot, cold, wet, or windy it might be!

Date:

Astronomy

Jan. 20, 2014 Rise Set
Actual Time 7:28 AM CST 5:03 PM CST
Civil Twilight 6:57 AM CST 5:34 PM CST
Nautical Twilight 6:23 AM CST 6:08 PM CST
Astronomical Twilight 5:49 AM CST 6:42 PM CST
Moon 9:45 PM CST (1/20) 9:22 AM CST (1/20)
Length of Visible Light 10h 37m
Length of Day
9h 35m
Waning Gibbous, 82% of the Moon is Illuminated
Jan 20
Waning Gibbous
Jan 23
Last Quarter
Jan 30
New
Feb 6
First Quarter
Feb 14
Full

Hourly Weather History & Observations

Time (CST) Temp. Windchill Dew Point Humidity Pressure Visibility Wind Dir Wind Speed Gust Speed Precip Events Conditions
12:15 AM 35.6 °F 25.5 °F 28.4 °F 75% 29.70 in 10.0 mi NW 17.3 mph - N/A   Overcast
12:35 AM 35.6 °F 26.2 °F 26.6 °F 70% 29.70 in 10.0 mi NW 15.0 mph 20.7 mph N/A   Overcast
12:55 AM 35.6 °F 26.6 °F 26.6 °F 70% 29.70 in 10.0 mi NW 13.8 mph 20.7 mph N/A   Overcast
1:15 AM 33.8 °F 25.3 °F 26.6 °F 75% 29.72 in 10.0 mi WNW 11.5 mph - N/A   Scattered Clouds
1:35 AM 32.0 °F 21.6 °F 26.6 °F 80% 29.74 in 10.0 mi WNW 15.0 mph - N/A   Scattered Clouds
1:55 AM 32.0 °F 22.1 °F 26.6 °F 80% 29.74 in 10.0 mi WNW 13.8 mph 19.6 mph N/A   Partly Cloudy
2:15 AM 30.2 °F 20.8 °F 26.6 °F 86% 29.74 in 10.0 mi NW 11.5 mph - N/A   Clear
2:35 AM 28.4 °F 19.1 °F 24.8 °F 86% 29.76 in 10.0 mi WNW 10.4 mph - N/A   Clear
2:55 AM 28.4 °F 20.4 °F 24.8 °F 86% 29.77 in 10.0 mi WNW 8.1 mph - N/A   Clear
3:15 AM 28.4 °F 20.4 °F 24.8 °F 86% 29.77 in 10.0 mi WNW 8.1 mph - N/A   Clear
3:35 AM 26.6 °F 21.2 °F 23.0 °F 86% 29.78 in 10.0 mi West 4.6 mph - N/A   Clear
3:55 AM 24.8 °F 16.1 °F 23.0 °F 93% 29.79 in 10.0 mi West 8.1 mph - N/A   Clear
4:15 AM 24.8 °F 14.6 °F 23.0 °F 93% 29.80 in 10.0 mi West 10.4 mph - N/A   Clear
4:35 AM 24.8 °F 15.3 °F 23.0 °F 93% 29.80 in 10.0 mi West 9.2 mph - N/A   Clear
4:55 AM 24.8 °F 14.6 °F 23.0 °F 93% 29.80 in 10.0 mi WNW 10.4 mph - N/A   Clear
5:15 AM 24.8 °F 16.1 °F 21.2 °F 86% 29.80 in 10.0 mi West 8.1 mph - N/A   Clear
5:35 AM 24.8 °F 14.6 °F 23.0 °F 93% 29.81 in 10.0 mi West 10.4 mph - N/A   Clear
5:55 AM 24.8 °F 16.1 °F 23.0 °F 93% 29.80 in 10.0 mi West 8.1 mph - N/A   Clear
6:15 AM 23.0 °F 14.7 °F 21.2 °F 93% 29.81 in 10.0 mi West 6.9 mph - N/A   Clear
6:35 AM 23.0 °F 14.7 °F 21.2 °F 93% 29.81 in 10.0 mi West 6.9 mph - N/A   Clear
6:55 AM 23.0 °F 14.7 °F 21.2 °F 93% 29.82 in 10.0 mi West 6.9 mph - N/A   Clear
7:15 AM 23.0 °F 15.8 °F 21.2 °F 93% 29.83 in 10.0 mi WSW 5.8 mph - N/A   Clear
7:35 AM 23.0 °F 15.8 °F 21.2 °F 93% 29.83 in 8.0 mi WNW 5.8 mph - N/A   Clear
7:55 AM 24.8 °F 16.9 °F 21.2 °F 86% 29.84 in 9.0 mi West 6.9 mph - N/A   Scattered Clouds
8:20 AM 26.6 °F 19.1 °F 23.0 °F 86% 29.85 in 9.0 mi West 6.9 mph - N/A   Overcast
8:35 AM 26.6 °F 19.1 °F 24.8 °F 93% 29.86 in 9.0 mi WNW 6.9 mph - N/A   Overcast
8:55 AM 28.4 °F 19.7 °F 24.8 °F 86% 29.86 in 9.0 mi West 9.2 mph - N/A   Overcast
9:15 AM 30.2 °F 19.8 °F 26.6 °F 86% 29.88 in 10.0 mi WNW 13.8 mph - N/A   Overcast
9:35 AM 32.0 °F 22.5 °F 26.6 °F 80% 29.89 in 10.0 mi NW 12.7 mph 19.6 mph N/A   Unknown
9:55 AM 32.0 °F 22.1 °F 26.6 °F 80% 29.90 in 10.0 mi WNW 13.8 mph - N/A   Unknown
10:15 AM 32.0 °F 22.1 °F 26.6 °F 80% 29.91 in 10.0 mi NW 13.8 mph 19.6 mph N/A   Overcast
10:35 AM 32.0 °F 22.1 °F 24.8 °F 75% 29.92 in 10.0 mi NNW 13.8 mph - N/A   Overcast
10:55 AM 32.0 °F 22.1 °F 24.8 °F 75% 29.92 in 10.0 mi NW 13.8 mph - N/A   Overcast
11:15 AM 32.0 °F 22.1 °F 23.0 °F 69% 29.92 in 10.0 mi NW 13.8 mph 20.7 mph N/A   Mostly Cloudy
11:35 AM 33.8 °F 24.3 °F 23.0 °F 65% 29.92 in 10.0 mi WNW 13.8 mph - N/A   Scattered Clouds
11:55 AM 33.8 °F 26.4 °F 24.8 °F 70% 29.91 in 10.0 mi West 9.2 mph - N/A   Partly Cloudy
12:15 PM 33.8 °F 26.4 °F 24.8 °F 70% 29.90 in 10.0 mi WNW 9.2 mph - N/A   Clear
12:35 PM 32.0 °F 22.5 °F 24.8 °F 75% 29.90 in 10.0 mi NW 12.7 mph - N/A   Mostly Cloudy
12:55 PM 32.0 °F 22.1 °F 24.8 °F 75% 29.91 in 10.0 mi WNW 13.8 mph - N/A   Overcast
1:20 PM 32.0 °F 23.0 °F 24.8 °F 75% 29.90 in 10.0 mi WNW 11.5 mph - N/A   Overcast
1:35 PM 32.0 °F 23.6 °F 24.8 °F 75% 29.90 in 10.0 mi West 10.4 mph - N/A   Overcast
1:55 PM 32.0 °F 23.0 °F 24.8 °F 75% 29.90 in 10.0 mi WNW 11.5 mph - N/A   Overcast
2:15 PM 32.0 °F 23.0 °F 24.8 °F 75% 29.90 in 10.0 mi WNW 11.5 mph - N/A   Mostly Cloudy
2:35 PM 32.0 °F 23.0 °F 24.8 °F 75% 29.90 in 9.0 mi NW 11.5 mph - N/A   Mostly Cloudy
2:55 PM 32.0 °F 23.6 °F 24.8 °F 75% 29.90 in 10.0 mi WNW 10.4 mph - N/A   Mostly Cloudy
3:15 PM 30.2 °F 22.6 °F 26.6 °F 86% 29.91 in 2.0 mi WNW 8.1 mph - N/A Snow Light Snow
3:35 PM 30.2 °F 23.4 °F 26.6 °F 86% 29.92 in 2.0 mi WNW 6.9 mph - N/A Snow Light Snow
3:55 PM 30.2 °F 24.3 °F 28.4 °F 93% 29.93 in - WNW 5.8 mph - N/A Snow Light Snow
4:15 PM 30.2 °F 24.3 °F 28.4 °F 93% 29.93 in 0.8 mi NW 5.8 mph - N/A Snow Light Snow
4:35 PM 30.2 °F - 28.4 °F 93% 29.93 in 0.8 mi Calm Calm - N/A Snow Light Snow
4:55 PM 30.2 °F 24.3 °F 28.4 °F 93% 29.93 in 0.8 mi NW 5.8 mph - 0.01 in Snow Light Snow
5:15 PM 30.2 °F 23.4 °F 28.4 °F 93% 29.94 in 0.5 mi NNW 6.9 mph - N/A Snow Light Snow
5:35 PM 28.4 °F 21.2 °F 28.4 °F 100% 29.95 in 1.2 mi NNW 6.9 mph - N/A Snow Light Snow
5:55 PM 26.6 °F 17.5 °F 24.8 °F 93% 29.97 in 1.2 mi North 9.2 mph 18.4 mph 0.01 in Snow Light Snow
6:15 PM 26.6 °F 13.8 °F 24.8 °F 93% 29.98 in 1.0 mi NNE 17.3 mph - N/A Snow Light Snow
6:35 PM 24.8 °F 13.4 °F 23.0 °F 93% 29.99 in 1.2 mi NNE 12.7 mph 18.4 mph N/A Snow Light Snow
6:55 PM 24.8 °F 15.3 °F 23.0 °F 93% 30.00 in 0.8 mi NE 9.2 mph 16.1 mph N/A Snow Light Snow
7:15 PM 23.0 °F 10.6 °F 21.2 °F 93% 30.01 in 1.8 mi NNE 13.8 mph 19.6 mph N/A Snow Light Snow
7:35 PM 21.2 °F 6.4 °F 17.6 °F 86% 30.03 in 1.2 mi NE 18.4 mph 26.5 mph N/A Snow Light Snow
7:55 PM 19.4 °F 5.5 °F 15.8 °F 86% 30.05 in 2.5 mi NE 15.0 mph 24.2 mph 0.01 in Snow Light Snow
8:15 PM 17.6 °F 3.7 °F 14.0 °F 86% 30.06 in 4.0 mi NNE 13.8 mph 24.2 mph N/A Snow Light Snow
8:35 PM 17.6 °F 3.2 °F 14.0 °F 86% 30.07 in 2.5 mi NE 15.0 mph 24.2 mph N/A Snow Light Snow
8:55 PM 17.6 °F 2.2 °F 12.2 °F 79% 30.09 in 3.0 mi NNE 17.3 mph 24.2 mph N/A Snow Light Snow
9:15 PM 15.8 °F -1.1 °F 12.2 °F 86% 30.10 in 2.0 mi NNE 19.6 mph 27.6 mph N/A Snow Light Snow
9:35 PM 15.8 °F -0.6 °F 10.4 °F 79% 30.12 in 3.0 mi NNE 18.4 mph 25.3 mph N/A Snow Light Snow
9:55 PM 14.0 °F -3.0 °F 8.6 °F 79% 30.13 in 1.8 mi North 18.4 mph 24.2 mph N/A Snow Light Snow
10:15 PM 14.0 °F -1.4 °F 8.6 °F 79% 30.15 in 3.0 mi North 15.0 mph - N/A Snow Light Snow
10:35 PM 14.0 °F -0.8 °F 8.6 °F 79% 30.17 in 1.8 mi North 13.8 mph 24.2 mph N/A Snow Light Snow
10:55 PM 12.2 °F -1.0 °F 8.6 °F 85% 30.18 in 2.5 mi North 10.4 mph 18.4 mph N/A Snow Light Snow
11:15 PM 12.2 °F -4.8 °F 5.0 °F 73% 30.19 in 2.5 mi North 17.3 mph - N/A Snow Light Snow
11:35 PM 10.4 °F -4.8 °F 5.0 °F 79% 30.21 in 3.0 mi North 12.7 mph 23.0 mph N/A Rain Light Freezing Rain
11:55 PM 10.4 °F -5.4 °F 5.0 °F 79% 30.21 in 3.0 mi North 13.8 mph 20.7 mph N/A Rain Light Freezing Rain